AAL651 KDFW-KSMF

Flight info

Callsign AAL651
Flight time N/A
Altitude 32000
Route HRPER3 HULZE FTI J58 MLF TATOO CRASY SLMMR5
Aircraft A321/M-SDE3FGHIRWY/LB1

Departure

Time 2026-05-01 12:29
Airport Dallas Fort Worth International Airport (KDFW)

Arrival

Time N/A
Airport Sacramento International Airport (KSMF)
Time Latitude Longitude Altitude Speed Heading
2026-05-01 11:54 32.90238 -97.04445 616 ft 0 kts 42°
2026-05-01 12:19 32.90222 -97.04464 627 ft 4 kts 53°
2026-05-01 12:19 32.90210 -97.04491 624 ft 4 kts 82°
2026-05-01 12:19 32.90213 -97.04518 626 ft 3 kts 131°
2026-05-01 12:19 32.90215 -97.04521 626 ft 0 kts 134°
2026-05-01 12:22 32.90205 -97.04509 630 ft 6 kts 136°
2026-05-01 12:22 32.90147 -97.04510 618 ft 10 kts 221°
2026-05-01 12:22 32.90136 -97.04604 625 ft 13 kts 269°
2026-05-01 12:22 32.90137 -97.04708 615 ft 13 kts 270°
2026-05-01 12:23 32.90086 -97.04764 620 ft 12 kts 187°
2026-05-01 12:23 32.90004 -97.04765 622 ft 12 kts 180°
2026-05-01 12:23 32.89912 -97.04765 622 ft 14 kts 180°
2026-05-01 12:23 32.89804 -97.04766 625 ft 17 kts 180°
2026-05-01 12:24 32.89680 -97.04767 615 ft 19 kts 180°
2026-05-01 12:24 32.89536 -97.04767 619 ft 21 kts 180°
2026-05-01 12:24 32.89389 -97.04768 615 ft 21 kts 180°
2026-05-01 12:24 32.89244 -97.04769 622 ft 21 kts 180°
2026-05-01 12:25 32.89181 -97.04829 619 ft 13 kts 265°
2026-05-01 12:25 32.89053 -97.04891 621 ft 13 kts 180°
2026-05-01 12:25 32.88950 -97.04892 622 ft 16 kts 181°
2026-05-01 12:26 32.88824 -97.04893 626 ft 20 kts 180°
2026-05-01 12:26 32.88523 -97.04894 615 ft 22 kts 180°
2026-05-01 12:26 32.88374 -97.04895 619 ft 21 kts 180°
2026-05-01 12:27 32.88226 -97.04896 620 ft 21 kts 180°
2026-05-01 12:27 32.88056 -97.04964 615 ft 10 kts 268°
2026-05-01 12:28 32.88103 -97.05090 620 ft 9 kts
2026-05-01 12:28 32.88206 -97.05089 626 ft 34 kts
2026-05-01 12:28 32.89554 -97.05083 621 ft 152 kts
2026-05-01 12:29 32.90731 -97.05075 751 ft 182 kts
2026-05-01 12:29 32.91987 -97.05077 1391 ft 181 kts
2026-05-01 12:29 32.94531 -97.05119 2475 ft 184 kts
2026-05-01 12:30 32.97075 -97.05185 3469 ft 182 kts
2026-05-01 12:30 32.98352 -97.05211 3823 ft 189 kts
2026-05-01 12:30 32.99741 -97.05227 3957 ft 209 kts
2026-05-01 12:31 33.01264 -97.05240 4073 ft 229 kts
2026-05-01 12:31 33.02926 -97.05253 4369 ft 244 kts
2026-05-01 12:31 33.04641 -97.05275 4947 ft 249 kts
2026-05-01 12:31 33.06331 -97.05816 5489 ft 261 kts 329°
2026-05-01 12:32 33.07542 -97.07479 5948 ft 278 kts 295°
2026-05-01 12:32 33.08508 -97.12026 7076 ft 286 kts 279°
2026-05-01 12:32 33.08515 -97.14398 7697 ft 288 kts 262°
2026-05-01 12:33 33.08048 -97.16729 8331 ft 289 kts 257°
2026-05-01 12:33 33.07595 -97.19066 8971 ft 289 kts 259°
2026-05-01 12:33 33.07207 -97.21423 9618 ft 290 kts 261°
2026-05-01 12:33 33.06846 -97.23783 10214 ft 291 kts 261°
2026-05-01 12:34 33.06427 -97.26226 10366 ft 310 kts 256°
2026-05-01 12:34 33.05663 -97.28715 10502 ft 329 kts 248°
2026-05-01 12:34 33.04717 -97.31282 10614 ft 346 kts 248°
2026-05-01 12:34 33.03723 -97.33955 10895 ft 356 kts 247°
2026-05-01 12:35 33.02719 -97.36626 11448 ft 357 kts 248°
2026-05-01 12:35 33.01693 -97.39359 12100 ft 356 kts 248°
2026-05-01 12:35 33.00687 -97.42042 12776 ft 353 kts 248°
2026-05-01 12:35 32.99745 -97.44731 13469 ft 350 kts 255°
2026-05-01 12:36 32.99484 -97.47544 14088 ft 347 kts 274°
2026-05-01 12:36 33.00120 -97.50312 14646 ft 351 kts 293°
2026-05-01 12:36 33.01610 -97.52702 15133 ft 362 kts 310°
2026-05-01 12:36 33.03457 -97.54711 15605 ft 365 kts 313°
2026-05-01 12:37 33.05373 -97.56723 16080 ft 368 kts 313°
2026-05-01 12:37 33.07308 -97.58734 16542 ft 370 kts 313°
2026-05-01 12:37 33.09262 -97.60748 16994 ft 373 kts 313°
2026-05-01 12:37 33.11233 -97.62771 17444 ft 376 kts 313°
2026-05-01 12:38 33.13222 -97.64816 17888 ft 377 kts 311°
2026-05-01 12:38 33.14877 -97.67181 18304 ft 369 kts 295°
2026-05-01 12:38 33.15835 -97.69975 18696 ft 363 kts 281°
2026-05-01 12:38 33.16447 -97.72903 19082 ft 365 kts 280°
2026-05-01 12:39 33.17061 -97.75859 19485 ft 367 kts 280°
2026-05-01 12:39 33.17677 -97.78820 19864 ft 369 kts 280°
2026-05-01 12:39 33.18296 -97.81802 20258 ft 370 kts 280°
2026-05-01 12:39 33.18917 -97.84793 20635 ft 372 kts 280°
2026-05-01 12:40 33.19544 -97.87803 21002 ft 374 kts 280°
2026-05-01 12:40 33.20173 -97.90824 21365 ft 376 kts 279°
2026-05-01 12:40 33.20804 -97.93861 21722 ft 378 kts 279°
2026-05-01 12:40 33.21435 -97.96912 22067 ft 380 kts 279°
2026-05-01 12:41 33.22069 -97.99980 22400 ft 382 kts 279°
2026-05-01 12:41 33.22708 -98.03069 22741 ft 383 kts 279°
2026-05-01 12:41 33.23345 -98.06166 23077 ft 385 kts 278°
2026-05-01 12:41 33.23983 -98.09281 23411 ft 387 kts 278°
2026-05-01 12:42 33.24625 -98.12416 23724 ft 389 kts 278°
2026-05-01 12:42 33.25271 -98.15564 24005 ft 391 kts 278°
2026-05-01 12:42 33.25920 -98.18725 24287 ft 393 kts 277°
2026-05-01 12:42 33.26571 -98.21904 24562 ft 394 kts 277°
2026-05-01 12:43 33.27215 -98.25051 24831 ft 396 kts 277°
2026-05-01 12:43 33.27868 -98.28258 25099 ft 397 kts 277°
2026-05-01 12:43 33.28521 -98.31471 25364 ft 399 kts 277°
2026-05-01 12:43 33.29179 -98.34704 25620 ft 401 kts 277°
2026-05-01 12:44 33.29840 -98.37940 25869 ft 402 kts 276°
2026-05-01 12:44 33.30506 -98.41197 26120 ft 404 kts 276°
2026-05-01 12:44 33.31836 -98.47746 26614 ft 407 kts 276°
2026-05-01 12:45 33.33165 -98.54345 27099 ft 410 kts 276°
2026-05-01 12:45 33.33834 -98.57660 27343 ft 411 kts 276°
2026-05-01 12:45 33.34506 -98.60992 27597 ft 412 kts 276°
2026-05-01 12:46 33.35178 -98.64330 27848 ft 414 kts 276°
2026-05-01 12:46 33.35851 -98.67676 28147 ft 414 kts 275°
2026-05-01 12:46 33.36522 -98.71012 28527 ft 412 kts 275°
2026-05-01 12:46 33.37189 -98.74342 28899 ft 410 kts 275°
2026-05-01 12:47 33.37850 -98.77655 29258 ft 409 kts 275°
2026-05-01 12:47 33.38509 -98.80960 29631 ft 407 kts 275°
2026-05-01 12:47 33.39165 -98.84251 30003 ft 405 kts 275°
2026-05-01 12:47 33.39816 -98.87524 30327 ft 404 kts 274°
2026-05-01 12:48 33.40464 -98.90791 30616 ft 402 kts 274°
2026-05-01 12:48 33.41108 -98.94045 30907 ft 401 kts 274°
2026-05-01 12:48 33.41751 -98.97290 31173 ft 400 kts 274°
2026-05-01 12:48 33.42389 -99.00527 31444 ft 399 kts 274°
2026-05-01 12:49 33.43018 -99.03718 31710 ft 398 kts 274°
2026-05-01 12:49 33.43653 -99.06939 31967 ft 398 kts 274°
2026-05-01 12:49 33.44922 -99.13372 32067 ft 396 kts 274°
2026-05-01 12:50 33.46184 -99.19777 32065 ft 395 kts 274°
2026-05-01 12:50 33.47434 -99.26183 32063 ft 395 kts 274°
2026-05-01 12:51 33.48677 -99.32587 32058 ft 395 kts 274°
2026-05-01 12:52 33.50546 -99.42210 32064 ft 395 kts 275°
2026-05-01 12:52 33.52409 -99.51848 32067 ft 396 kts 275°
2026-05-01 12:53 33.54274 -99.61492 32069 ft 396 kts 275°
2026-05-01 12:54 33.55510 -99.67926 32071 ft 396 kts 275°
2026-05-01 12:54 33.57353 -99.77592 32075 ft 396 kts 275°
2026-05-01 12:55 33.59191 -99.87265 32075 ft 396 kts 275°
2026-05-01 12:56 33.60408 -99.93714 32075 ft 397 kts 275°
2026-05-01 12:56 33.61624 -100.00126 32083 ft 397 kts 275°
2026-05-01 12:57 33.62856 -100.06618 32079 ft 397 kts 275°
2026-05-01 12:57 33.64668 -100.16273 32089 ft 397 kts 275°
2026-05-01 12:58 33.66086 -100.22706 32088 ft 406 kts 284°
2026-05-01 12:59 33.70015 -100.31875 32088 ft 413 kts 289°
2026-05-01 12:59 33.74009 -100.41054 32093 ft 414 kts 289°
2026-05-01 13:00 33.77992 -100.50253 32100 ft 414 kts 289°
2026-05-01 13:01 33.81998 -100.59483 32099 ft 415 kts 289°
2026-05-01 13:02 33.85997 -100.68734 32087 ft 416 kts 290°
2026-05-01 13:07 34.14978 -101.36592 32106 ft 423 kts 292°
2026-05-01 13:08 34.17638 -101.42885 32117 ft 423 kts 292°
2026-05-01 13:08 34.20309 -101.49224 32127 ft 423 kts 292°
2026-05-01 13:09 34.22981 -101.55563 32138 ft 423 kts 292°
2026-05-01 13:09 34.25649 -101.61896 32139 ft 423 kts 292°
2026-05-01 13:10 34.28304 -101.68247 32141 ft 423 kts 292°
2026-05-01 13:10 34.30959 -101.74597 32138 ft 423 kts 292°
2026-05-01 13:11 34.33619 -101.80943 32133 ft 422 kts 292°
2026-05-01 13:11 34.36268 -101.87290 32122 ft 422 kts 292°
2026-05-01 13:12 34.38897 -101.93624 32113 ft 421 kts 292°
2026-05-01 13:12 34.41523 -101.99953 32104 ft 420 kts 292°
2026-05-01 13:13 34.44124 -102.06235 32096 ft 419 kts 292°
2026-05-01 13:13 34.46742 -102.12545 32097 ft 419 kts 292°
2026-05-01 13:14 34.49357 -102.18859 32098 ft 419 kts 292°
2026-05-01 13:14 34.51958 -102.25172 32104 ft 418 kts 292°
2026-05-01 13:15 34.54554 -102.31490 32112 ft 418 kts 292°
2026-05-01 13:15 34.57148 -102.37808 32119 ft 418 kts 292°
2026-05-01 13:16 34.59743 -102.44134 32124 ft 418 kts 292°
2026-05-01 13:16 34.62333 -102.50453 32123 ft 418 kts 292°
2026-05-01 13:17 34.67499 -102.63115 32116 ft 418 kts 292°
2026-05-01 13:18 34.71378 -102.72629 32104 ft 419 kts 292°
2026-05-01 13:18 34.73953 -102.78975 32106 ft 419 kts 292°
2026-05-01 13:19 34.76521 -102.85332 32106 ft 419 kts 292°
2026-05-01 13:20 34.80356 -102.94831 32104 ft 419 kts 292°
2026-05-01 13:20 34.82930 -103.01201 32105 ft 419 kts 292°
2026-05-01 13:21 34.86789 -103.10773 32100 ft 420 kts 292°
2026-05-01 13:21 34.89356 -103.17173 32100 ft 420 kts 292°
2026-05-01 13:22 34.91923 -103.23589 32097 ft 421 kts 292°
2026-05-01 13:22 34.94481 -103.30004 32101 ft 421 kts 292°
2026-05-01 13:23 34.97044 -103.36431 32120 ft 421 kts 292°
2026-05-01 13:23 34.99610 -103.42865 32133 ft 421 kts 292°
2026-05-01 13:24 35.02168 -103.49306 32148 ft 421 kts 292°
2026-05-01 13:25 35.05997 -103.58960 32169 ft 421 kts 292°
2026-05-01 13:25 35.08541 -103.65393 32173 ft 421 kts 292°
2026-05-01 13:26 35.11065 -103.71792 32173 ft 421 kts 292°
2026-05-01 13:26 35.13604 -103.78228 32158 ft 421 kts 292°
2026-05-01 13:27 35.16134 -103.84675 32142 ft 420 kts 292°
2026-05-01 13:27 35.19920 -103.94339 32114 ft 420 kts 292°
2026-05-01 13:28 35.23701 -104.04010 32087 ft 420 kts 292°
2026-05-01 13:29 35.28729 -104.16913 32086 ft 420 kts 291°
2026-05-01 13:31 35.36228 -104.36254 32093 ft 420 kts 291°
2026-05-01 13:32 35.42467 -104.52420 32101 ft 419 kts 291°
2026-05-01 13:33 35.48672 -104.68608 32113 ft 419 kts 291°
2026-05-01 13:34 35.53610 -104.81532 32150 ft 419 kts 291°
2026-05-01 13:35 35.57305 -104.91250 32186 ft 419 kts 291°
2026-05-01 13:36 35.61004 -105.00982 32219 ft 419 kts 291°
2026-05-01 13:36 35.64686 -105.10716 32228 ft 418 kts 291°
2026-05-01 13:37 35.67139 -105.17200 32230 ft 418 kts 291°
2026-05-01 13:37 35.69627 -105.23662 32231 ft 418 kts 292°
2026-05-01 13:38 35.73366 -105.33352 32194 ft 418 kts 291°
2026-05-01 13:39 35.75845 -105.39818 32163 ft 417 kts 291°
2026-05-01 13:39 35.78318 -105.46278 32122 ft 417 kts 291°
2026-05-01 13:40 35.80767 -105.52698 32080 ft 417 kts 291°
2026-05-01 13:40 35.83226 -105.59168 32067 ft 417 kts 291°
2026-05-01 13:41 35.85681 -105.65637 32052 ft 416 kts 291°
2026-05-01 13:41 35.88136 -105.72101 32048 ft 416 kts 291°
2026-05-01 13:42 35.90577 -105.78563 32033 ft 416 kts 291°
2026-05-01 13:42 35.93013 -105.85030 32026 ft 415 kts 291°
2026-05-01 13:43 35.95452 -105.91490 32048 ft 415 kts 291°
2026-05-01 13:43 35.97894 -105.97953 32073 ft 415 kts 291°
2026-05-01 13:44 36.00318 -106.04418 32095 ft 415 kts 291°
2026-05-01 13:44 36.02733 -106.10897 32104 ft 415 kts 291°
2026-05-01 13:45 36.05154 -106.17374 32106 ft 416 kts 291°
2026-05-01 13:45 36.07579 -106.23865 32101 ft 416 kts 291°
2026-05-01 13:46 36.09998 -106.30359 32088 ft 416 kts 291°
2026-05-01 13:46 36.12412 -106.36859 32068 ft 416 kts 291°
2026-05-01 13:47 36.14830 -106.43361 32040 ft 416 kts 291°
2026-05-01 13:47 36.17240 -106.49874 32006 ft 416 kts 290°
2026-05-01 13:48 36.19643 -106.56403 32002 ft 417 kts 290°
2026-05-01 13:48 36.22042 -106.62939 32000 ft 417 kts 290°
2026-05-01 13:49 36.24447 -106.69478 31999 ft 417 kts 290°
2026-05-01 13:49 36.26845 -106.76022 32001 ft 417 kts 290°
2026-05-01 13:50 36.29243 -106.82577 32001 ft 417 kts 290°
2026-05-01 13:50 36.31234 -106.88022 32002 ft 417 kts 290°
2026-05-01 13:51 36.34015 -106.95651 32000 ft 417 kts 290°
2026-05-01 13:51 36.36405 -107.02220 32007 ft 418 kts 290°
2026-05-01 13:52 36.38794 -107.08790 32006 ft 417 kts 290°
2026-05-01 13:52 36.40768 -107.14249 32006 ft 417 kts 290°
2026-05-01 13:53 36.43138 -107.20826 32004 ft 417 kts 290°
2026-05-01 13:53 36.46695 -107.30698 32012 ft 417 kts 290°
2026-05-01 13:54 36.49067 -107.37280 32008 ft 417 kts 290°
2026-05-01 13:54 36.51430 -107.43865 32011 ft 417 kts 290°
2026-05-01 13:55 36.53792 -107.50455 32019 ft 417 kts 290°
2026-05-01 13:55 36.56148 -107.57047 32019 ft 417 kts 290°
2026-05-01 13:56 36.58498 -107.63651 32014 ft 417 kts 290°
2026-05-01 13:56 36.60851 -107.70260 32021 ft 417 kts 291°
2026-05-01 13:57 36.63197 -107.76868 32025 ft 417 kts 291°
2026-05-01 13:57 36.65536 -107.83495 32030 ft 417 kts 291°
2026-05-01 13:58 36.67879 -107.90112 32057 ft 417 kts 291°
2026-05-01 13:58 36.70218 -107.96733 32065 ft 417 kts 291°
2026-05-01 13:59 36.72550 -108.03362 32080 ft 417 kts 291°
2026-05-01 13:59 36.74871 -108.09993 32099 ft 418 kts 291°
2026-05-01 14:00 36.77206 -108.16577 32106 ft 418 kts 292°
2026-05-01 14:00 36.79574 -108.23203 32106 ft 418 kts 292°
2026-05-01 14:01 36.81940 -108.29879 32124 ft 418 kts 292°
2026-05-01 14:01 36.84264 -108.36469 32104 ft 418 kts 292°
2026-05-01 14:02 36.86607 -108.43113 32082 ft 418 kts 292°
2026-05-01 14:02 36.88949 -108.49753 32062 ft 418 kts 292°
2026-05-01 14:03 36.91280 -108.56394 32041 ft 417 kts 292°
2026-05-01 14:03 36.93604 -108.63043 32026 ft 417 kts 292°
2026-05-01 14:04 36.95923 -108.69691 32032 ft 417 kts 292°
2026-05-01 14:04 36.98234 -108.76327 32039 ft 416 kts 292°
2026-05-01 14:05 37.00548 -108.82956 32048 ft 416 kts 292°
2026-05-01 14:05 37.02855 -108.89589 32042 ft 415 kts 292°
2026-05-01 14:06 37.05151 -108.96217 32037 ft 415 kts 292°
2026-05-01 14:06 37.07441 -109.02839 32032 ft 414 kts 292°
2026-05-01 14:07 37.09720 -109.09461 32034 ft 414 kts 292°
2026-05-01 14:08 37.13132 -109.19378 32033 ft 413 kts 292°
2026-05-01 14:08 37.15390 -109.25941 32037 ft 412 kts 292°
2026-05-01 14:09 37.17654 -109.32547 32032 ft 412 kts 292°
2026-05-01 14:09 37.19907 -109.39148 32030 ft 412 kts 292°
2026-05-01 14:10 37.22155 -109.45761 32028 ft 411 kts 292°
2026-05-01 14:10 37.24398 -109.52366 32039 ft 411 kts 292°
2026-05-01 14:11 37.26639 -109.58971 32038 ft 411 kts 292°
2026-05-01 14:11 37.29991 -109.68870 32038 ft 410 kts 292°
2026-05-01 14:12 37.32215 -109.75467 32031 ft 410 kts 292°
2026-05-01 14:12 37.34435 -109.82080 32025 ft 410 kts 292°
2026-05-01 14:13 37.36282 -109.87561 32031 ft 409 kts 292°
2026-05-01 14:13 37.38850 -109.95224 32030 ft 409 kts 291°
2026-05-01 14:14 37.41051 -110.01807 32031 ft 408 kts 291°
2026-05-01 14:14 37.43253 -110.08394 32029 ft 408 kts 291°
2026-05-01 14:15 37.45439 -110.14975 32028 ft 407 kts 291°
2026-05-01 14:15 37.47627 -110.21550 32025 ft 407 kts 291°
2026-05-01 14:16 37.49808 -110.28128 32024 ft 407 kts 291°
2026-05-01 14:16 37.51985 -110.34703 32024 ft 407 kts 291°
2026-05-01 14:17 37.54146 -110.41278 32023 ft 406 kts 291°
2026-05-01 14:17 37.56310 -110.47853 32025 ft 406 kts 291°
2026-05-01 14:18 37.58475 -110.54423 32022 ft 406 kts 291°
2026-05-01 14:18 37.60270 -110.59890 32025 ft 406 kts 291°
2026-05-01 14:19 37.62785 -110.67578 32027 ft 406 kts 291°
2026-05-01 14:19 37.64929 -110.74164 32028 ft 405 kts 291°
2026-05-01 14:20 37.68141 -110.84035 32033 ft 405 kts 291°
2026-05-01 14:21 37.70258 -110.90568 32039 ft 404 kts 291°
2026-05-01 14:21 37.72379 -110.97139 32045 ft 404 kts 290°
2026-05-01 14:22 37.75554 -111.06980 32051 ft 403 kts 291°
2026-05-01 14:22 37.77665 -111.13541 32055 ft 402 kts 291°
2026-05-01 14:23 37.79765 -111.20096 32059 ft 402 kts 291°
2026-05-01 14:23 37.81865 -111.26649 32064 ft 402 kts 291°
2026-05-01 14:24 37.83964 -111.33208 32070 ft 402 kts 291°
2026-05-01 14:24 37.86055 -111.39758 32076 ft 401 kts 291°
2026-05-01 14:25 37.88148 -111.46315 32087 ft 401 kts 291°
2026-05-01 14:25 37.90227 -111.52873 32094 ft 401 kts 291°
2026-05-01 14:26 37.93320 -111.62676 32105 ft 401 kts 291°
2026-05-01 14:27 37.95391 -111.69231 32113 ft 400 kts 291°
2026-05-01 14:27 37.97452 -111.75781 32120 ft 400 kts 291°
2026-05-01 14:28 38.00528 -111.85584 32131 ft 398 kts 291°
2026-05-01 14:28 38.02567 -111.92118 32130 ft 398 kts 291°
2026-05-01 14:29 38.04594 -111.98637 32127 ft 397 kts 291°
2026-05-01 14:30 38.08652 -112.11640 32125 ft 395 kts 291°
2026-05-01 14:31 38.11674 -112.21383 32123 ft 395 kts 291°
2026-05-01 14:31 38.13680 -112.27888 32125 ft 395 kts 291°
2026-05-01 14:32 38.15684 -112.34385 32117 ft 395 kts 291°
2026-05-01 14:32 38.17685 -112.40890 32115 ft 395 kts 291°
2026-05-01 14:33 38.19679 -112.47403 32117 ft 395 kts 291°
2026-05-01 14:33 38.21670 -112.53920 32116 ft 395 kts 291°
2026-05-01 14:34 38.23656 -112.60431 32111 ft 395 kts 291°
2026-05-01 14:34 38.25646 -112.66947 32117 ft 395 kts 291°
2026-05-01 14:35 38.27634 -112.73468 32131 ft 395 kts 291°
2026-05-01 14:35 38.29608 -112.80004 32146 ft 396 kts 291°
2026-05-01 14:36 38.31571 -112.86505 32162 ft 396 kts 291°
2026-05-01 14:36 38.33561 -112.93101 32180 ft 397 kts 291°
2026-05-01 14:37 38.35471 -112.99645 32187 ft 397 kts 286°
2026-05-01 14:37 38.36097 -113.06622 32183 ft 400 kts 273°
2026-05-01 14:38 38.36147 -113.13710 32170 ft 400 kts 273°
2026-05-01 14:38 38.36205 -113.19658 32163 ft 401 kts 274°
2026-05-01 14:39 38.36275 -113.26717 32149 ft 401 kts 273°
2026-05-01 14:39 38.36334 -113.33820 32136 ft 401 kts 273°
2026-05-01 14:40 38.36393 -113.40930 32118 ft 401 kts 274°
2026-05-01 14:40 38.36443 -113.48029 32105 ft 401 kts 274°
2026-05-01 14:41 38.36480 -113.55136 32102 ft 401 kts 274°
2026-05-01 14:41 38.36524 -113.62236 32105 ft 401 kts 274°
2026-05-01 14:42 38.36561 -113.69348 32104 ft 401 kts 274°
2026-05-01 14:42 38.36590 -113.76451 32106 ft 401 kts 274°
2026-05-01 14:43 38.36618 -113.83560 32106 ft 401 kts 274°
2026-05-01 14:43 38.36645 -113.90667 32111 ft 401 kts 274°
2026-05-01 14:44 38.36666 -113.97786 32118 ft 402 kts 274°
2026-05-01 14:44 38.36685 -114.08471 32120 ft 402 kts 274°
2026-05-01 14:45 38.36696 -114.19150 32121 ft 402 kts 274°
2026-05-01 14:46 38.36695 -114.26276 32117 ft 402 kts 274°
2026-05-01 14:46 38.36689 -114.36966 32116 ft 403 kts 274°
2026-05-01 14:47 38.36681 -114.44109 32107 ft 403 kts 274°
2026-05-01 14:48 38.36662 -114.54821 32105 ft 403 kts 274°
2026-05-01 14:48 38.36632 -114.65540 32095 ft 403 kts 274°
2026-05-01 14:49 38.36573 -114.79801 32093 ft 403 kts 275°
2026-05-01 14:50 38.36497 -114.94109 32085 ft 404 kts 275°
2026-05-01 14:51 38.36433 -115.04850 32085 ft 404 kts 275°
2026-05-01 14:52 38.36358 -115.15597 32089 ft 404 kts 275°
2026-05-01 14:53 38.36275 -115.26344 32086 ft 404 kts 275°
2026-05-01 14:53 38.36210 -115.33512 32084 ft 405 kts 275°
2026-05-01 14:54 38.36141 -115.40635 32084 ft 405 kts 275°
2026-05-01 14:54 38.36073 -115.47805 32094 ft 404 kts 275°
2026-05-01 14:55 38.35999 -115.54973 32091 ft 405 kts 275°
2026-05-01 14:55 38.35914 -115.62140 32086 ft 404 kts 275°
2026-05-01 14:56 38.35827 -115.69301 32090 ft 404 kts 275°
2026-05-01 14:56 38.35737 -115.76459 32089 ft 404 kts 275°
2026-05-01 14:57 38.35646 -115.83612 32095 ft 404 kts 275°
2026-05-01 14:57 38.35498 -115.94349 32092 ft 404 kts 276°
2026-05-01 14:58 38.35395 -116.01510 32091 ft 404 kts 276°
2026-05-01 14:58 38.35286 -116.08667 32103 ft 404 kts 276°
2026-05-01 14:59 38.35175 -116.15792 32105 ft 404 kts 276°
2026-05-01 14:59 38.35057 -116.22953 32098 ft 404 kts 275°
2026-05-01 15:00 38.34873 -116.33687 32096 ft 404 kts 276°
2026-05-01 15:01 38.34741 -116.40842 32095 ft 404 kts 276°
2026-05-01 15:01 38.34611 -116.47998 32089 ft 404 kts 275°
2026-05-01 15:02 38.34482 -116.55153 32083 ft 404 kts 275°
2026-05-01 15:02 38.34342 -116.62302 32081 ft 404 kts 275°
2026-05-01 15:03 38.34194 -116.69465 32079 ft 404 kts 275°
2026-05-01 15:03 38.34047 -116.76634 32076 ft 405 kts 275°
2026-05-01 15:04 38.33891 -116.83802 32083 ft 405 kts 275°
2026-05-01 15:04 38.33728 -116.90981 32089 ft 405 kts 275°
2026-05-01 15:05 38.33558 -116.98155 32095 ft 406 kts 275°
2026-05-01 15:05 38.33382 -117.05291 32102 ft 406 kts 275°
2026-05-01 15:06 38.33220 -117.12470 32105 ft 406 kts 275°
2026-05-01 15:06 38.33051 -117.19660 32093 ft 406 kts 274°
2026-05-01 15:07 38.33011 -117.26839 32081 ft 401 kts 282°
2026-05-01 15:07 38.34450 -117.33571 32066 ft 393 kts 294°
2026-05-01 15:08 38.36357 -117.40099 32057 ft 394 kts 294°
2026-05-01 15:08 38.38260 -117.46650 32057 ft 394 kts 294°
2026-05-01 15:09 38.40167 -117.53213 32057 ft 395 kts 294°
2026-05-01 15:09 38.42077 -117.59799 32054 ft 396 kts 294°
2026-05-01 15:10 38.43987 -117.66398 32053 ft 397 kts 294°
2026-05-01 15:10 38.46861 -117.76315 32054 ft 398 kts 294°
2026-05-01 15:11 38.49720 -117.86278 32046 ft 399 kts 293°
2026-05-01 15:12 38.51626 -117.92938 32050 ft 399 kts 293°
2026-05-01 15:12 38.54527 -118.03091 32058 ft 415 kts 293°
2026-05-01 15:14 38.59047 -118.20905 32068 ft 427 kts 288°
2026-05-01 15:14 38.61309 -118.31928 32110 ft 428 kts 288°
2026-05-01 15:15 38.64315 -118.46682 32163 ft 429 kts 288°
2026-05-01 15:16 38.67312 -118.61472 32183 ft 430 kts 287°
2026-05-01 15:18 38.71039 -118.80017 32140 ft 430 kts 287°
2026-05-01 15:19 38.73982 -118.94870 32117 ft 432 kts 287°
2026-05-01 15:19 38.76199 -119.06051 32109 ft 432 kts 287°
2026-05-01 15:20 38.78414 -119.17261 32115 ft 433 kts 287°
2026-05-01 15:21 38.79883 -119.24743 32121 ft 433 kts 287°
2026-05-01 15:21 38.81337 -119.32232 32122 ft 433 kts 287°
2026-05-01 15:22 38.83525 -119.43482 31854 ft 435 kts 287°
2026-05-01 15:22 38.84262 -119.47283 30877 ft 440 kts 287°
2026-05-01 15:22 38.84988 -119.51041 30588 ft 429 kts 287°
2026-05-01 15:23 38.85702 -119.54742 29922 ft 428 kts 287°
2026-05-01 15:23 38.86417 -119.58439 29409 ft 424 kts 287°
2026-05-01 15:23 38.87125 -119.62108 28923 ft 424 kts 287°
2026-05-01 15:23 38.87830 -119.65774 28406 ft 422 kts 287°
2026-05-01 15:24 38.88530 -119.69420 27910 ft 421 kts 287°
2026-05-01 15:24 38.89242 -119.73133 27401 ft 435 kts 287°
2026-05-01 15:24 38.89965 -119.76926 26875 ft 440 kts 286°
2026-05-01 15:24 38.90689 -119.80746 26345 ft 439 kts 286°
2026-05-01 15:25 38.91412 -119.84549 25822 ft 438 kts 286°
2026-05-01 15:25 38.92130 -119.88335 25328 ft 436 kts 286°
2026-05-01 15:25 38.92846 -119.92120 24816 ft 440 kts 286°
2026-05-01 15:25 38.93573 -119.95964 24304 ft 443 kts 286°
2026-05-01 15:26 38.94053 -119.98509 23971 ft 443 kts 286°
2026-05-01 15:26 38.95009 -120.03588 23265 ft 440 kts 286°
2026-05-01 15:26 38.95738 -120.07452 22789 ft 449 kts 286°
2026-05-01 15:26 38.96476 -120.11362 22284 ft 450 kts 286°
2026-05-01 15:27 38.97209 -120.15263 21614 ft 448 kts 286°
2026-05-01 15:27 38.97699 -120.17890 21162 ft 446 kts 286°
2026-05-01 15:27 38.98413 -120.21738 20634 ft 438 kts 286°
2026-05-01 15:28 38.99784 -120.29162 19959 ft 413 kts 286°
2026-05-01 15:28 39.00436 -120.32618 19812 ft 391 kts 287°
2026-05-01 15:28 39.01072 -120.35920 19649 ft 371 kts 287°
2026-05-01 15:29 39.02293 -120.42179 18511 ft 356 kts 287°
2026-05-01 15:29 39.02890 -120.45254 17784 ft 353 kts 287°
2026-05-01 15:29 39.04066 -120.51341 16354 ft 348 kts 286°
2026-05-01 15:30 39.05221 -120.57367 15297 ft 347 kts 285°
2026-05-01 15:31 39.06957 -120.69497 13391 ft 345 kts 266°
2026-05-01 15:31 39.05752 -120.75434 12454 ft 342 kts 253°
2026-05-01 15:32 39.04250 -120.81197 11478 ft 338 kts 252°
2026-05-01 15:32 39.02772 -120.86849 10602 ft 325 kts 252°
2026-05-01 15:33 39.00722 -120.94735 9878 ft 296 kts 251°
2026-05-01 15:34 38.98761 -121.02240 9330 ft 294 kts 251°